Precipitable_Water
0.83 0.83 0.80 0.81 0.79 0.78 0.76 0.75 0.71 0.68 0.66 0.64 0.65 0.62 0.60 0.60 0.60 0.63 0.60 0.56 0.55 0.55 0.54 0.50 0.48 0.49 0.42 0.32 0.28 0.37 0.43 0.35 0.32 0.29 0.27 0.26 0.24 0.24 0.21 0.21 0.22 0.19 0.21 0.23 0.26 0.25 0.23
0.81 0.82 0.81 0.79 0.78 0.76 0.74 0.71 0.69 0.67 0.65 0.61 0.59 0.57 0.56 0.58 0.56 0.57 0.60 0.60 0.57 0.56 0.54 0.50 0.50 0.49 0.37 0.25 0.35 0.38 0.37 0.33 0.29 0.28 0.27 0.27 0.23 0.24 0.22 0.21 0.21 0.23 0.23 0.24 0.25 0.24 0.21
0.83 0.79 0.80 0.79 0.76 0.74 0.71 0.69 0.67 0.65 0.63 0.63 0.58 0.56 0.55 0.54 0.53 0.52 0.52 0.56 0.56 0.53 0.51 0.51 0.51 0.45 0.34 0.29 0.36 0.37 0.35 0.34 0.31 0.30 0.28 0.31 0.30 0.26 0.25 0.22 0.25 0.24 0.21 0.24 0.21 0.22 0.18
0.82 0.80 0.81 0.78 0.76 0.72 0.71 0.67 0.66 0.64 0.62 0.60 0.58 0.54 0.51 0.50 0.51 0.50 0.48 0.49 0.53 0.49 0.48 0.50 0.52 0.44 0.30 0.37 0.37 0.33 0.35 0.35 0.33 0.31 0.32 0.34 0.34 0.28 0.24 0.26 0.24 0.21 0.18 0.12 0.17 0.20 0.20
0.81 0.80 0.79 0.77 0.74 0.71 0.68 0.67 0.66 0.63 0.60 0.58 0.56 0.52 0.48 0.47 0.48 0.47 0.46 0.44 0.45 0.46 0.46 0.47 0.42 0.39 0.28 0.36 0.30 0.33 0.36 0.30 0.29 0.31 0.33 0.37 0.32 0.25 0.24 0.18 0.15 0.16 0.10 0.11 0.12 0.19 0.18
0.82 0.79 0.78 0.76 0.73 0.69 0.67 0.65 0.64 0.62 0.59 0.57 0.54 0.51 0.46 0.44 0.43 0.45 0.44 0.40 0.41 0.43 0.42 0.43 0.41 0.32 0.29 0.23 0.30 0.33 0.37 0.35 0.28 0.29 0.28 0.27 0.25 0.19 0.17 0.14 0.08 0.09 0.10 0.11 0.10 0.15 0.18
0.83 0.78 0.77 0.74 0.72 0.68 0.66 0.64 0.62 0.60 0.59 0.55 0.52 0.48 0.45 0.42 0.41 0.42 0.37 0.32 0.27 0.27 0.31 0.27 0.29 0.26 0.26 0.30 0.35 0.31 0.34 0.32 0.31 0.26 0.18 0.24 0.17 0.13 0.15 0.16 0.15 0.14 0.12 0.11 0.13 0.19 0.17
0.81 0.77 0.75 0.72 0.70 0.68 0.64 0.62 0.60 0.59 0.58 0.55 0.51 0.47 0.44 0.43 0.40 0.37 0.36 0.29 0.31 0.35 0.23 0.31 0.30 0.30 0.31 0.32 0.22 0.26 0.33 0.24 0.25 0.19 0.23 0.19 0.13 0.17 0.18 0.18 0.16 0.15 0.12 0.11 0.14 0.19 0.18
0.78 0.75 0.73 0.71 0.68 0.65 0.64 0.61 0.59 0.59 0.58 0.56 0.52 0.48 0.45 0.43 0.40 0.32 0.28 0.30 0.41 0.41 0.22 0.27 0.30 0.28 0.27 0.29 0.23 0.23 0.28 0.25 0.21 0.18 0.18 0.14 0.15 0.18 0.17 0.16 0.14 0.14 0.12 0.12 0.13 0.18 0.20
0.76 0.73 0.71 0.69 0.66 0.63 0.62 0.62 0.60 0.59 0.58 0.57 0.53 0.49 0.46 0.42 0.31 0.29 0.24 0.36 0.43 0.43 0.15 0.18 0.24 0.29 0.31 0.30 0.22 0.32 0.32 0.25 0.21 0.16 0.17 0.16 0.19 0.17 0.16 0.14 0.16 0.11 0.18 0.17 0.16 0.14 0.10
0.76 0.71 0.68 0.66 0.65 0.64 0.62 0.61 0.60 0.59 0.59 0.57 0.53 0.50 0.48 0.40 0.31 0.27 0.30 0.43 0.45 0.36 0.07 0.19 0.27 0.38 0.32 0.24 0.25 0.25 0.35 0.26 0.17 0.17 0.17 0.13 0.15 0.15 0.14 0.15 0.18 0.14 0.20 0.18 0.18 0.16 0.15
0.74 0.71 0.67 0.66 0.66 0.64 0.63 0.61 0.58 0.57 0.57 0.55 0.51 0.48 0.45 0.41 0.39 0.39 0.43 0.47 0.40 0.13 0.07 0.15 0.22 0.19 0.19 0.23 0.23 0.26 0.25 0.28 0.26 0.19 0.19 0.17 0.22 0.19 0.17 0.20 0.21 0.23 0.19 0.19 0.20 0.17 0.09
0.75 0.71 0.68 0.67 0.67 0.64 0.62 0.59 0.56 0.54 0.54 0.51 0.46 0.43 0.39 0.40 0.28 0.45 0.48 0.33 0.14 0.10 0.16 0.14 0.16 0.18 0.17 0.15 0.17 0.18 0.17 0.16 0.14 0.11 0.10 0.17 0.16 0.20 0.22 0.17 0.22 0.21 0.15 0.09 0.08 0.09 0.08
0.75 0.73 0.70 0.68 0.66 0.63 0.60 0.56 0.53 0.52 0.53 0.51 0.47 0.43 0.41 0.37 0.42 0.48 0.37 0.19 0.10 0.13 0.14 0.21 0.19 0.17 0.13 0.15 0.15 0.15 0.14 0.11 0.17 0.14 0.11 0.08 0.07 0.16 0.21 0.19 0.17 0.18 0.17 0.10 0.07 0.07 0.09
0.76 0.73 0.72 0.69 0.66 0.62 0.58 0.55 0.54 0.57 0.60 0.58 0.53 0.46 0.40 0.41 0.40 0.44 0.24 0.12 0.11 0.12 0.18 0.16 0.15 0.12 0.12 0.16 0.15 0.14 0.13 0.12 0.15 0.17 0.10 0.09 0.10 0.19 0.21 0.25 0.24 0.19 0.15 0.19 0.13 0.15 0.12
0.77 0.75 0.73 0.70 0.66 0.61 0.57 0.55 0.55 0.60 0.65 0.62 0.47 0.43 0.43 0.52 0.45 0.31 0.17 0.12 0.13 0.21 0.20 0.18 0.11 0.13 0.10 0.12 0.13 0.13 0.12 0.16 0.18 0.23 0.25 0.17 0.11 0.19 0.21 0.25 0.26 0.22 0.25 0.14 0.16 0.09 0.08
0.76 0.75 0.72 0.69 0.66 0.61 0.59 0.59 0.56 0.60 0.69 0.64 0.47 0.36 0.50 0.54 0.44 0.26 0.16 0.14 0.19 0.22 0.21 0.17 0.14 0.13 0.14 0.13 0.15 0.13 0.13 0.18 0.22 0.23 0.27 0.23 0.18 0.16 0.21 0.18 0.16 0.19 0.18 0.20 0.19 0.17 0.11
0.75 0.74 0.70 0.67 0.63 0.60 0.58 0.58 0.58 0.61 0.70 0.59 0.42 0.30 0.53 0.52 0.27 0.27 0.20 0.23 0.23 0.21 0.23 0.20 0.19 0.18 0.16 0.17 0.15 0.15 0.15 0.20 0.28 0.27 0.21 0.26 0.21 0.15 0.16 0.24 0.26 0.24 0.21 0.22 0.16 0.14 0.19
0.75 0.73 0.69 0.65 0.61 0.59 0.56 0.54 0.53 0.56 0.63 0.51 0.36 0.36 0.49 0.43 0.22 0.23 0.27 0.25 0.26 0.25 0.25 0.24 0.22 0.24 0.25 0.21 0.17 0.20 0.22 0.30 0.31 0.29 0.26 0.30 0.23 0.17 0.18 0.24 0.31 0.27 0.29 0.29 0.30 0.28 0.22
0.71 0.68 0.64 0.60 0.56 0.52 0.49 0.45 0.44 0.50 0.57 0.50 0.37 0.29 0.37 0.41 0.38 0.29 0.26 0.27 0.26 0.36 0.32 0.32 0.29 0.30 0.27 0.24 0.27 0.24 0.26 0.32 0.38 0.35 0.39 0.38 0.30 0.25 0.20 0.23 0.29 0.28 0.31 0.33 0.32 0.27 0.27
0.66 0.60 0.56 0.53 0.51 0.47 0.44 0.40 0.40 0.47 0.59 0.53 0.45 0.38 0.42 0.31 0.35 0.36 0.36 0.35 0.32 0.33 0.42 0.41 0.36 0.36 0.35 0.31 0.34 0.33 0.37 0.41 0.46 0.48 0.47 0.44 0.32 0.35 0.36 0.37 0.37 0.36 0.35 0.37 0.35 0.36 0.30
0.59 0.56 0.53 0.50 0.47 0.45 0.44 0.44 0.39 0.40 0.47 0.38 0.36 0.36 0.42 0.39 0.41 0.38 0.38 0.36 0.34 0.37 0.39 0.35 0.34 0.37 0.37 0.31 0.31 0.27 0.29 0.27 0.26 0.31 0.29 0.31 0.22 0.25 0.21 0.24 0.23 0.20 0.24 0.23 0.21 0.22 0.23
0.54 0.51 0.49 0.48 0.47 0.46 0.44 0.41 0.35 0.29 0.28 0.24 0.33 0.38 0.28 0.28 0.27 0.22 0.23 0.25 0.23 0.22 0.26 0.28 0.23 0.17 0.14 0.17 0.21 0.20 0.20 0.20 0.20 0.20 0.20 0.21 0.19 0.16 0.12 0.19 0.18 0.12 0.15 0.19 0.22 0.25 0.25
0.55 0.54 0.52 0.51 0.47 0.43 0.39 0.35 0.31 0.27 0.25 0.23 0.24 0.22 0.14 0.12 0.14 0.14 0.14 0.14 0.13 0.13 0.11 0.15 0.16 0.12 0.18 0.20 0.16 0.16 0.16 0.16 0.17 0.16 0.20 0.15 0.16 0.17 0.11 0.14 0.07 0.15 0.26 0.25 0.22 0.22 0.26
0.54 0.50 0.48 0.45 0.40 0.36 0.33 0.31 0.29 0.26 0.24 0.20 0.23 0.17 0.12 0.09 0.13 0.12 0.10 0.10 0.10 0.11 0.10 0.12 0.18 0.17 0.19 0.15 0.09 0.06 0.07 0.10 0.13 0.16 0.19 0.23 0.20 0.15 0.11 0.11 0.13 0.15 0.19 0.21 0.19 0.16 0.22
0.45 0.42 0.39 0.37 0.34 0.33 0.32 0.30 0.29 0.27 0.24 0.20 0.20 0.21 0.13 0.09 0.08 0.12 0.09 0.10 0.07 0.07 0.08 0.10 0.16 0.18 0.18 0.13 0.08 0.04 0.03 0.06 0.05 0.08 0.18 0.20 0.20 0.14 0.11 0.08 0.06 0.14 0.21 0.25 0.24 0.10 0.26
0.39 0.39 0.36 0.35 0.33 0.33 0.32 0.30 0.29 0.28 0.25 0.21 0.20 0.23 0.14 0.08 0.13 0.13 0.08 0.07 0.12 0.10 0.07 0.09 0.10 0.11 0.16 0.09 0.06 0.05 0.05 0.11 0.06 0.06 0.08 0.10 0.10 0.07 0.07 0.08 0.08 0.14 0.21 0.24 0.09 0.12 0.22
0.36 0.35 0.34 0.34 0.34 0.33 0.33 0.32 0.30 0.30 0.28 0.22 0.21 0.25 0.15 0.10 0.13 0.16 0.16 0.12 0.12 0.11 0.06 0.09 0.09 0.12 0.10 0.07 0.07 0.08 0.07 0.10 0.10 0.11 0.09 0.07 0.06 0.06 0.08 0.06 0.04 0.17 0.18 0.10 0.12 0.16 0.20
0.37 0.36 0.35 0.35 0.35 0.35 0.35 0.34 0.33 0.33 0.31 0.26 0.18 0.27 0.25 0.14 0.13 0.23 0.23 0.23 0.18 0.17 0.12 0.14 0.10 0.11 0.12 0.09 0.10 0.11 0.08 0.10 0.09 0.05 0.12 0.07 0.09 0.06 0.08 0.06 0.12 0.16 0.14 0.17 0.20 0.19 0.19
Wind_Speed
5 4 3 3 3 3 3 3 3 4 4 5 6 7 8 9 10 11 11 11 11 11 10 10 9 9 8 8 8 9 9 8 6 6 5 5 4 3 3 3 4 4 5 4 5 4 5
6 5 5 4 4 4 4 4 4 5 6 6 7 8 10 11 11 12 12 12 12 12 11 11 10 9 8 9 8 9 8 6 5 5 4 3 3 2 1 1 1 2 3 3 4 5 4
8 7 6 6 6 5 5 5 6 6 7 8 9 10 11 12 12 12 12 12 12 12 11 11 10 9 9 10 9 8 7 6 5 4 3 3 2 3 2 2 2 2 3 4 5 6 5
9 8 8 7 7 7 7 7 7 8 9 10 10 11 12 13 13 12 12 12 12 11 11 10 10 10 10 9 9 8 7 6 5 4 3 3 3 3 3 3 4 4 4 5 5 7 7
10 9 9 8 8 8 8 8 9 9 10 11 12 12 13 13 12 12 12 12 11 11 11 10 10 10 10 9 8 8 7 6 6 5 5 5 5 5 5 4 6 6 6 7 8 6 8
11 11 10 9 9 9 9 9 10 11 11 12 12 13 13 13 12 12 11 10 9 9 10 10 10 9 10 9 8 8 8 7 6 6 6 6 6 6 6 5 7 7 7 8 9 8 10
13 12 11 10 10 9 9 10 11 11 12 13 13 13 13 13 12 11 9 9 9 10 9 10 9 9 9 9 9 8 9 8 7 6 7 7 6 9 9 8 8 7 8 10 11 10 11
13 12 11 11 10 10 10 10 11 12 12 13 13 13 13 13 11 10 9 8 9 9 9 10 11 11 11 10 10 10 9 9 9 9 8 8 9 8 7 8 9 9 10 12 12 11 12
13 12 11 11 10 10 10 11 11 12 13 13 13 12 12 11 10 9 8 8 9 10 9 10 11 11 12 11 11 11 11 10 10 10 10 10 10 10 10 10 10 11 12 12 13 14 12
12 12 11 11 10 10 10 11 11 12 13 13 12 12 11 11 9 9 9 9 10 10 9 11 10 10 10 11 11 12 12 12 11 12 11 12 12 12 12 13 12 14 13 12 13 13 14
11 11 11 10 10 10 10 11 12 12 13 13 12 12 11 10 9 9 9 10 10 9 9 8 8 8 9 9 9 10 12 13 12 12 12 14 13 14 15 15 15 15 14 14 14 14 15
11 10 10 10 9 9 10 10 11 12 13 12 12 12 11 11 10 10 11 10 10 8 11 8 8 9 9 9 10 11 11 11 12 13 14 15 16 16 16 15 15 14 15 15 16 16 17
10 9 9 9 9 9 10 10 11 12 12 12 11 10 10 10 11 11 11 10 10 8 10 9 9 8 9 10 10 11 12 13 13 13 16 16 16 16 16 15 16 16 14 17 17 16 17
9 9 8 9 9 9 10 11 11 12 12 12 10 10 10 10 11 11 10 9 10 10 11 12 12 13 12 12 13 13 13 15 15 14 15 15 18 16 17 16 16 16 15 14 18 18 19
8 8 8 8 9 9 10 11 12 12 13 12 11 10 10 11 11 10 10 9 12 12 12 13 14 13 13 12 13 13 14 15 15 15 15 15 18 16 16 16 16 17 18 17 16 20 21
8 7 7 8 9 10 11 12 13 13 13 12 11 11 12 12 11 11 10 13 12 13 13 14 15 14 15 15 15 15 15 16 16 16 17 17 19 18 17 18 18 18 17 16 18 19 22
7 6 7 7 9 10 11 13 14 14 14 13 12 12 13 13 12 12 12 13 13 13 14 14 14 16 16 16 17 17 17 17 17 17 17 17 18 20 19 20 19 19 21 20 20 20 22
5 5 6 7 8 10 12 13 15 15 15 14 14 14 14 14 13 13 12 13 13 14 14 15 15 16 16 17 18 17 18 18 18 18 19 20 20 23 23 23 22 22 23 22 21 24 24
4 4 5 7 9 11 13 14 15 15 15 14 14 14 15 14 13 13 14 13 13 14 15 15 15 16 17 17 18 18 19 20 20 20 20 21 21 22 24 22 22 23 23 22 23 24 27
3 4 6 8 9 11 13 15 16 16 16 15 14 14 14 13 13 12 13 15 15 15 15 16 17 17 18 19 19 21 21 21 22 22 22 23 25 25 29 28 26 28 28 28 27 27 30
4 5 6 7 10 12 14 16 17 16 14 13 13 13 13 13 14 14 14 16 16 17 17 17 17 17 19 20 23 23 23 25 25 26 26 26 29 30 32 32 30 32 32 31 32 36 36
3 4 6 8 10 12 15 16 16 16 14 12 12 12 13 14 15 15 16 16 16 18 18 20 18 21 21 21 22 24 24 24 25 24 24 25 27 26 30 31 32 35 33 33 36 37 38
2 4 7 9 11 12 13 14 15 15 10 8 9 10 10 12 12 12 13 13 14 16 15 15 18 20 21 21 23 25 26 27 27 26 26 27 26 27 30 25 31 32 29 27 26 26 27
3 6 7 9 10 11 12 13 14 15 13 9 10 10 10 10 10 11 12 13 14 15 16 17 17 18 19 23 24 24 23 24 25 26 25 25 24 25 29 27 26 26 24 25 27 30 29
4 5 7 8 9 11 12 13 14 14 13 11 11 10 10 9 10 12 12 13 14 15 16 17 18 19 22 22 21 21 21 20 21 21 21 23 23 24 24 25 31 29 29 26 25 29 29
4 5 7 8 10 11 13 14 14 15 14 12 13 12 11 10 13 13 14 15 15 16 18 18 19 22 22 20 20 19 21 21 22 24 22 22 23 23 24 27 28 27 26 28 27 30 25
4 6 8 9 11 12 13 14 15 15 15 13 14 15 14 14 15 15 16 17 16 18 20 22 23 23 22 21 21 21 23 22 23 23 23 24 24 25 25 26 30 27 26 25 23 26 27
5 7 8 10 11 12 14 15 16 17 18 16 17 18 18 17 18 18 19 19 19 21 22 24 25 24 24 23 23 24 23 24 25 26 24 23 22 23 23 24 27 21 22 23 27 30 28
7 8 10 11 13 14 15 17 18 19 20 20 19 22 22 21 22 23 23 23 23 24 25 26 26 26 26 25 25 25 26 25 26 27 26 25 23 23 23 26 25 26 28 29 28 28 28
Wind_Direction
265 258 249 240 239 244 244 253 256 262 269 271 277 285 292 294 293 290 288 287 289 290 290 290 289 292 291 298 295 307 309 314 314 314 318 320 324 319 287 259 255 246 240 248 251 261 275
257 253 249 246 246 250 258 264 270 276 279 281 285 290 297 297 297 294 289 286 286 285 284 285 285 285 287 290 293 308 304 304 312 313 320 327 336 340 356 315 281 241 232 238 265 284 289
253 251 249 252 253 256 262 268 275 282 287 289 291 294 299 300 298 295 293 288 285 283 279 280 279 280 282 285 288 298 299 293 304 301 306 313 316 327 318 302 286 266 256 261 294 289 283
250 248 251 253 256 261 266 271 277 286 291 294 294 295 300 301 299 296 294 290 284 281 277 278 275 276 277 281 283 287 290 286 291 289 288 297 305 311 310 284 308 289 288 279 281 294 286
250 248 251 255 258 263 269 274 282 288 293 296 297 297 300 301 299 296 295 291 282 279 275 276 273 273 277 277 275 276 281 279 278 275 281 286 293 294 300 296 301 301 274 278 288 285 289
253 248 250 255 259 266 271 278 284 289 293 298 298 298 299 301 299 298 294 291 284 281 277 274 272 276 271 272 273 272 274 275 271 269 281 289 290 287 295 294 277 273 281 279 278 288 294
252 246 249 255 260 267 273 280 285 291 295 298 298 298 298 299 298 297 289 289 293 290 279 269 267 269 274 274 268 273 274 265 267 277 273 289 286 274 279 284 286 283 282 281 283 288 292
250 244 248 255 261 267 275 282 287 292 296 299 298 297 297 299 294 292 288 287 288 284 284 275 270 271 270 270 265 270 271 262 264 264 271 289 277 281 281 284 286 286 285 282 285 286 290
243 243 247 254 261 268 277 284 290 294 298 299 298 296 297 298 290 291 290 287 290 289 285 282 274 270 268 267 262 264 267 263 267 265 267 266 279 278 282 285 284 284 282 284 281 293 292
234 242 246 253 263 271 278 287 293 296 299 300 297 296 296 294 288 287 289 289 291 292 294 283 279 275 271 266 267 265 265 263 271 264 268 274 275 275 281 281 281 284 285 284 289 294 285
236 241 248 253 264 274 282 288 294 297 299 300 297 295 293 292 284 288 287 290 291 295 301 283 281 280 277 268 269 273 268 266 261 264 270 273 271 276 278 282 280 282 284 285 285 287 290
233 239 248 255 265 276 285 292 297 300 302 299 295 295 289 287 286 285 285 286 289 300 279 282 284 283 280 280 275 272 269 274 268 271 277 277 279 281 280 283 283 275 285 289 287 285 285
233 239 248 256 266 278 288 295 300 304 305 302 294 295 291 288 284 285 283 284 293 270 286 285 287 292 288 284 281 280 276 276 269 278 275 280 277 279 278 280 282 281 286 289 291 288 278
233 241 249 260 268 281 290 296 301 305 306 303 296 292 294 293 289 284 281 286 273 277 274 283 284 285 282 286 281 282 281 279 275 278 280 276 284 275 281 276 274 273 273 274 276 281 286
233 244 253 263 272 283 291 297 301 304 305 300 291 291 293 297 292 285 284 283 270 273 278 284 284 284 284 284 281 287 278 277 278 273 270 278 280 280 282 279 278 277 274 280 282 285 286
234 247 260 269 279 287 293 297 300 302 302 296 290 290 291 297 291 287 286 275 279 282 283 283 280 281 281 283 284 286 282 282 282 281 278 280 287 283 281 279 282 275 277 284 285 284 282
235 249 266 276 286 293 300 301 300 301 300 291 290 290 290 295 289 289 280 279 285 286 287 288 285 284 283 287 284 284 286 288 288 284 282 279 280 283 281 275 272 278 278 280 278 275 278
235 257 273 290 296 301 306 306 303 300 298 291 287 288 291 290 290 287 284 284 287 289 289 288 286 287 288 290 286 284 286 286 288 284 284 283 279 280 279 281 278 278 274 272 272 277 276
237 265 288 302 306 310 312 312 309 303 299 292 289 286 291 288 284 287 285 287 288 291 291 291 290 290 289 289 290 287 288 286 286 286 282 281 282 288 289 287 285 279 277 275 275 276 272
260 291 300 310 315 318 318 319 316 307 299 291 288 288 291 290 286 286 291 291 287 292 290 290 289 289 290 290 286 286 289 288 288 285 282 281 279 273 276 279 282 279 277 276 275 275 277
283 303 312 318 321 324 326 324 323 314 303 292 295 286 286 289 293 292 290 289 289 292 293 296 292 294 291 290 291 286 289 290 287 286 285 283 280 280 281 281 280 278 276 274 271 273 272
292 311 320 328 332 334 333 335 334 326 307 297 291 291 292 291 291 291 295 292 289 290 293 292 291 294 291 289 288 290 294 290 287 292 288 288 285 288 285 282 281 282 280 276 274 275 277
323 335 336 336 334 336 341 346 350 352 341 325 314 306 300 304 301 300 297 297 297 297 297 299 296 297 294 294 294 291 289 289 289 292 292 288 288 291 286 289 293 288 283 280 282 280 280
343 342 344 348 350 351 353 354 355 357 357 343 332 320 314 306 311 306 306 305 305 304 300 302 304 302 302 303 300 298 296 293 291 290 285 288 289 286 289 293 287 286 286 287 285 286 285
352 353 352 354 358 359 357 355 355 354 353 351 341 333 325 315 316 314 312 311 310 309 306 304 306 306 308 308 308 308 305 303 302 300 298 288 289 289 289 286 289 288 290 289 291 288 287
6 8 6 1 358 356 354 353 352 352 348 343 345 335 328 320 309 314 312 309 305 308 309 305 307 307 308 307 309 304 301 302 302 304 302 299 293 289 294 289 287 287 290 290 289 288 285
31 17 7 3 0 358 356 354 353 350 347 339 335 331 322 317 308 307 308 305 302 306 305 306 306 307 306 305 303 300 300 300 301 300 299 300 298 291 290 287 289 289 288 291 291 287 288
25 14 8 3 359 357 353 349 347 344 341 333 329 329 321 312 306 303 303 304 300 301 305 304 307 304 303 302 300 299 300 299 301 299 299 296 298 295 294 291 293 288 291 289 290 292 289
14 6 1 357 351 348 345 342 340 338 336 330 324 323 318 312 307 304 301 300 297 298 302 303 300 300 298 300 297 299 297 301 300 300 301 299 292 295 286 289 292 290 290 294 293 291 290